Wind_Speed
33 34 34 33 32 31 30 30 31 32 33 33 32 31 31 31 30 29 29 29 29 28 28 28 29 30 31 33 33 33 33 33 35 36 37 37 36 36 35 34 32 31 30 30 29 29 29 30 30 30 30 30 29 28 28 27 27 26 25 25 24 23 21 20 19 18 17 16 15
32 34 34 33 32 30 29 27 27 28 29 30 30 30 30 30 30 29 29 29 29 28 27 27 28 30 31 33 34 34 35 36 37 38 38 38 37 37 36 34 33 31 31 30 29 29 29 29 30 30 30 29 29 28 27 27 27 26 25 24 23 21 20 19 18 18 17 17 16
32 34 35 33 31 29 27 25 24 25 26 27 28 29 30 30 30 30 29 30 30 30 29 28 29 31 32 33 34 36 37 38 39 39 39 38 38 37 36 34 33 31 30 30 29 28 28 28 28 29 29 28 28 27 26 26 26 25 24 23 22 21 19 18 18 18 18 18 17
32 35 35 33 31 29 27 26 25 25 26 27 28 29 30 30 30 30 30 30 31 32 31 30 31 32 33 34 35 36 37 38 39 38 38 37 37 36 35 34 33 31 30 29 28 28 27 27 27 27 27 27 27 27 26 25 24 23 23 22 21 20 19 18 18 18 18 18 18
32 35 35 33 31 30 28 27 26 26 27 29 30 30 30 30 30 30 30 30 32 33 33 31 32 33 34 35 35 35 35 37 37 36 36 36 36 35 34 33 32 30 29 28 27 26 26 25 25 25 25 25 25 25 24 23 22 21 21 21 20 20 19 19 19 19 19 19 19
31 33 33 33 33 31 28 26 26 27 28 30 31 31 31 30 30 30 30 30 32 34 34 33 32 33 34 34 33 32 33 34 34 33 34 35 34 33 32 31 30 29 28 26 26 25 24 24 23 23 23 22 22 21 21 20 20 19 19 19 19 19 20 20 20 20 20 19 19
30 31 32 33 33 32 29 25 25 26 28 30 31 31 31 31 31 30 30 31 31 33 34 34 33 32 32 32 31 30 30 32 32 33 34 34 33 31 30 29 28 27 26 25 24 23 23 22 21 20 19 19 18 17 17 17 17 18 18 18 19 19 20 20 20 20 20 19 20
30 31 31 33 33 32 29 25 24 25 26 28 29 30 30 30 30 29 29 30 30 31 33 34 33 33 31 30 30 29 29 30 30 32 33 32 31 30 29 28 27 26 25 24 23 22 21 20 18 17 16 15 15 15 14 14 15 16 17 18 18 19 19 20 20 20 20 20 21
29 29 31 32 32 32 30 27 25 24 25 26 27 27 27 28 27 26 25 25 26 27 29 30 32 32 32 31 30 29 28 28 28 29 30 30 29 29 28 27 26 26 25 23 22 21 19 18 17 16 15 14 13 13 13 13 14 15 16 17 18 18 19 19 20 19 20 20 21
28 28 29 30 32 32 31 29 26 25 25 26 26 26 25 26 25 24 23 23 22 22 23 25 27 29 30 30 30 28 27 26 25 25 26 26 26 26 26 26 26 26 24 23 21 19 17 18 17 16 15 13 13 13 13 13 13 14 14 15 16 17 17 18 19 20 20 21 22
28 28 27 28 30 32 33 30 28 27 27 27 26 25 25 25 25 25 24 23 24 24 23 22 23 24 26 26 27 26 25 23 22 21 21 22 22 22 22 24 25 25 23 22 19 18 18 18 17 16 14 13 13 13 13 13 13 12 12 13 14 15 16 17 18 19 20 21 22
29 28 27 27 29 31 32 30 28 27 27 26 25 24 23 24 25 25 24 25 26 26 24 23 22 22 22 22 22 22 21 20 19 18 18 18 18 18 19 21 22 22 22 21 20 21 21 20 18 17 15 13 13 13 12 12 12 11 11 11 12 13 15 16 17 18 19 21 22
29 28 28 28 29 29 29 28 26 26 25 25 24 22 22 22 24 25 25 25 25 25 24 23 21 20 20 19 19 18 18 18 17 17 17 17 17 18 18 19 20 21 22 22 23 23 22 21 19 17 15 14 13 12 11 11 10 10 11 12 13 14 15 16 17 18 19 20 21
29 28 28 29 29 28 26 26 25 25 24 24 24 23 22 22 24 25 25 26 26 25 24 22 21 20 19 18 18 17 17 17 17 17 18 18 18 19 19 20 21 22 23 24 25 24 22 20 18 16 14 13 12 12 11 11 10 10 11 12 14 15 15 16 17 18 19 20 20
29 28 28 29 30 28 26 25 25 24 25 26 26 26 25 25 25 26 27 27 27 25 24 24 23 22 21 21 20 20 20 20 20 21 21 21 22 22 22 22 23 24 25 26 25 24 22 20 18 16 14 13 12 12 12 12 11 11 11 12 14 15 16 17 18 18 19 20 20
30 29 29 30 30 29 27 27 26 25 26 27 28 28 27 27 27 27 28 29 27 26 26 26 25 25 24 24 24 24 25 25 25 25 26 26 25 25 25 25 26 26 27 26 25 23 22 20 18 17 15 14 13 13 14 14 14 14 13 14 15 16 17 18 19 20 21 22 22
30 30 30 30 30 29 29 28 27 27 27 28 28 28 28 28 27 28 28 28 28 27 27 27 27 26 26 26 27 27 27 27 28 28 29 29 29 29 29 30 30 30 29 27 26 24 22 21 20 18 16 15 14 14 15 15 16 16 16 16 17 18 19 20 21 22 23 23 23
28 28 29 29 29 29 29 28 27 27 27 27 27 27 27 27 27 26 27 27 27 28 28 28 28 27 26 26 27 27 27 27 28 28 29 30 30 31 32 32 32 32 31 30 28 27 25 24 23 21 19 17 16 16 15 16 16 17 18 19 19 20 21 22 22 23 23 23 23
24 25 26 26 27 27 27 26 26 25 25 25 25 25 25 25 25 25 26 26 27 28 29 29 29 28 28 27 27 27 27 27 27 27 27 28 29 30 32 32 33 32 32 31 30 29 28 27 27 25 24 22 21 19 18 17 18 18 19 20 21 22 23 23 23 23 23 22 21
21 22 22 22 23 24 25 25 25 25 25 24 24 24 24 24 24 24 25 26 27 28 29 30 31 30 29 29 28 28 27 27 27 27 27 27 28 29 31 31 32 32 31 31 30 29 28 28 27 27 26 25 23 21 20 20 20 21 21 21 23 24 24 24 24 23 22 21 19
19 19 19 20 21 22 23 24 25 26 26 26 25 25 25 25 25 25 25 26 26 27 29 30 31 31 31 31 30 30 29 28 28 28 28 28 29 30 30 31 31 31 30 30 29 28 27 27 27 26 25 24 23 22 22 22 23 23 22 23 24 24 24 24 23 22 20 18 17
19 18 18 19 20 21 23 24 25 26 27 27 27 26 26 26 26 26 26 25 25 26 27 29 30 31 31 31 32 31 31 30 29 29 28 28 29 29 30 31 31 30 29 28 27 27 26 26 26 25 25 24 24 24 25 25 25 25 24 24 24 23 22 21 19 18 16 15 13
19 19 19 19 20 21 22 23 24 25 26 26 26 26 26 26 25 25 24 23 23 24 26 27 29 29 30 31 31 32 31 30 29 28 28 27 27 28 28 29 29 29 28 27 27 26 25 25 25 25 25 25 26 26 27 28 28 27 25 24 23 21 19 17 16 14 13 12 11
18 19 19 19 19 20 20 21 21 22 22 23 23 23 23 23 23 22 22 22 23 24 26 27 27 28 28 29 30 30 30 30 29 28 26 26 26 26 27 27 27 27 27 26 26 26 25 25 25 25 26 26 27 27 28 29 29 28 26 24 22 20 17 16 14 13 12 11 10
16 17 18 18 19 19 19 19 19 20 19 19 19 20 20 21 21 21 21 22 23 24 24 25 25 26 26 27 27 28 28 28 27 27 26 25 25 25 26 26 26 26 26 26 25 25 25 26 26 26 27 27 27 27 28 28 28 27 25 23 21 19 17 16 14 13 12 11 10
14 15 16 17 18 18 18 19 19 19 19 19 19 20 20 21 21 21 22 22 22 22 23 23 23 23 23 24 24 24 24 24 24 25 25 24 24 24 24 24 24 24 24 24 24 25 25 25 26 27 27 27 27 27 26 25 25 24 22 20 19 18 17 16 15 13 12 11 10
15 15 15 16 16 17 18 18 19 19 19 20 20 20 21 21 21 21 21 21 21 20 20 20 20 20 20 20 21 21 21 21 21 22 23 23 23 23 23 23 22 22 23 23 23 24 24 25 26 26 27 27 26 25 24 22 21 19 18 17 16 16 16 15 15 14 13 12 11
17 17 16 16 17 17 18 18 19 19 19 20 20 20 20 20 20 20 20 19 19 18 18 17 17 17 18 18 18 19 20 20 20 21 22 22 22 22 22 22 21 21 22 22 22 23 23 24 24 25 25 24 24 22 21 19 18 17 16 15 15 14 14 14 14 13 13 13 13
19 19 18 19 19 18 18 18 19 19 19 19 19 19 19 19 19 19 19 19 19 18 18 18 17 17 17 17 18 19 19 20 21 21 22 22 22 22 22 21 21 21 21 21 21 21 21 21 21 21 21 20 19 18 17 16 16 15 15 15 14 14 13 13 13 13 14 14 14
19 19 20 20 20 19 19 19 19 19 19 18 18 18 18 18 19 19 19 19 18 18 18 18 18 18 18 19 19 20 20 21 21 21 22 23 22 22 22 21 21 20 20 20 19 19 19 18 18 17 16 15 15 15 14 15 15 15 15 15 15 14 14 14 14 14 15 15 15
20 20 20 20 20 20 19 18 18 18 18 18 17 17 17 18 18 18 18 18 18 18 18 18 19 20 20 20 20 21 21 21 21 22 22 23 23 23 22 21 21 20 19 18 18 17 17 16 15 14 13 13 12 13 13 14 14 15 15 15 15 14 14 14 14 15 15 15 15
20 20 21 21 20 19 19 18 18 18 17 17 17 17 17 17 17 17 17 18 18 18 18 19 19 20 21 20 20 20 21 21 21 22 22 23 23 23 22 21 20 19 18 17 17 16 15 14 14 13 12 11 11 11 12 13 14 14 14 14 14 14 14 14 14 14 14 13 13
20 21 21 21 20 19 19 18 18 18 17 17 17 18 18 18 17 17 17 18 18 18 19 19 20 20 21 21 20 20 20 21 21 21 22 22 23 23 22 21 20 19 18 17 16 16 14 13 12 12 11 10 10 11 11 12 13 13 13 13 12 12 12 12 12 12 12 12 11
21 21 21 20 20 19 19 18 18 18 18 18 18 18 18 18 18 18 18 18 18 19 19 19 20 20 20 21 21 21 20 20 20 21 21 22 22 23 22 21 20 19 18 17 16 15 14 13 12 11 11 11 11 11 12 12 13 13 13 12 12 11 11 10 10 10 10 10 10
20 20 20 20 19 19 18 18 18 18 18 18 18 18 18 18 18 18 18 18 18 19 19 19 20 20 20 20 20 20 20 20 20 20 21 22 22 23 22 21 20 18 17 16 15 14 13 13 12 12 12 12 12 12 13 13 13 13 13 12 12 12 11 10 10 9 9 9 10
19 19 19 19 19 18 18 18 18 18 18 18 18 18 18 17 17 17 17 18 18 19 19 19 19 19 19 19 19 19 19 19 20 20 21 22 22 22 22 20 19 17 15 14 14 14 13 13 13 13 13 13 13 13 13 13 13 13 13 13 12 12 11 11 10 10 9 10 10
18 18 18 18 18 18 18 18 18 18 18 18 18 18 18 17 17 17 17 17 18 18 18 17 17 17 18 18 18 17 17 18 19 20 20 21 22 22 21 20 18 16 15 14 13 13 13 13 12 12 12 13 13 13 14 14 14 14 13 13 12 11 11 10 10 10 10 10 10
17 17 17 17 17 17 17 17 17 18 17 17 17 17 17 17 16 16 16 17 17 18 17 17 16 16 16 16 16 16 15 15 16 18 19 20 20 20 20 19 18 16 15 14 13 12 12 11 11 11 11 12 13 14 14 15 14 14 14 13 12 11 10 10 9 9 9 10 10
15 15 15 16 16 15 15 16 16 16 17 17 17 16 16 16 16 16 16 16 17 17 17 16 16 15 15 14 14 14 13 13 13 15 17 18 19 19 19 19 19 17 15 14 12 11 10 10 10 10 10 11 12 13 14 15 15 14 14 13 12 11 11 10 9 9 9 9 9
14 14 14 14 14 14 14 15 15 14 15 15 16 16 16 16 15 15 15 15 15 16 16 16 15 14 14 13 14 14 13 11 11 12 13 16 17 17 18 19 19 17 16 14 12 10 9 9 9 9 10 10 12 13 14 14 14 14 13 12 12 11 11 10 9 9 9 8 9
13 14 14 14 14 14 14 14 14 13 13 13 13 14 14 14 14 13 13 13 14 14 15 15 14 13 13 13 13 13 12 11 10 9 11 13 15 16 17 18 18 17 15 13 11 9 8 8 9 9 10 10 11 12 13 13 14 14 13 12 11 11 11 10 10 9 9 8 8
Wind_Direction
177 177 175 174 172 169 167 165 166 168 170 172 172 172 172 172 172 174 176 177 177 177 178 179 180 180 181 182 184 185 183 179 176 174 174 173 173 173 173 174 174 174 174 174 174 175 176 179 181 182 183 185 185 185 185 185 185 185 185 185 185 186 187 187 188 188 187 186 187
175 175 174 173 171 168 164 161 160 162 166 168 169 169 170 170 171 172 174 175 175 174 173 173 176 177 179 181 182 180 176 172 170 170 171 171 172 173 173 174 176 177 177 177 178 178 179 181 183 183 184 185 185 184 184 185 185 185 184 184 184 186 187 188 191 193 194 194 195
174 174 174 173 170 167 163 158 156 156 158 161 163 165 166 168 169 170 172 174 175 173 170 167 171 174 177 177 176 173 170 167 167 167 168 169 170 172 173 175 177 179 180 180 180 180 181 182 184 184 185 185 186 186 185 186 186 187 187 188 188 188 189 190 192 194 195 196 196
175 175 175 175 172 168 163 160 155 152 152 154 157 159 162 164 166 167 169 172 173 173 169 164 164 169 173 173 171 168 166 166 166 166 166 167 168 170 173 175 177 179 180 181 181 181 181 183 185 186 187 188 189 190 190 190 191 192 193 194 194 193 193 193 193 193 193 194 196
177 178 178 179 177 172 166 162 156 151 149 150 151 152 154 157 160 162 163 165 169 171 171 166 161 162 166 169 168 166 166 167 167 166 165 165 166 169 172 175 177 178 179 180 181 181 183 184 186 188 189 190 192 192 193 194 195 196 197 197 196 195 194 192 192 192 193 194 197
177 179 181 182 181 177 171 166 159 153 149 148 146 145 145 147 149 152 154 156 162 168 172 170 164 160 160 162 163 164 165 166 169 168 165 164 165 167 169 172 175 177 178 179 180 181 182 183 184 184 185 186 187 189 191 192 193 194 194 194 193 192 190 189 190 191 194 196 199
173 177 181 183 182 180 177 172 165 158 153 150 147 144 142 141 140 142 145 149 155 162 167 170 169 165 161 160 160 162 163 164 166 166 165 164 165 166 168 171 173 175 176 176 176 175 175 174 173 173 174 175 176 178 181 184 187 189 189 189 188 186 184 184 187 190 195 200 202
170 172 175 179 181 182 182 179 171 163 158 155 153 150 147 144 141 140 142 144 146 152 160 166 170 171 170 167 166 164 163 163 163 163 162 163 164 166 168 170 172 172 172 172 170 168 168 170 173 175 174 169 169 171 174 180 184 186 187 186 184 181 180 181 184 189 196 203 205
172 169 169 173 177 181 182 180 174 168 166 165 164 161 157 154 152 149 149 150 147 147 151 157 164 169 173 174 173 170 167 165 163 161 159 160 162 164 167 169 170 170 169 168 167 169 173 182 192 194 189 180 175 176 179 182 184 185 185 184 180 178 177 178 182 189 196 203 205
174 171 168 169 173 178 180 178 175 174 175 176 176 174 170 167 164 163 164 167 164 159 155 153 156 162 168 172 173 173 172 171 167 162 158 158 160 162 165 167 168 168 167 167 168 174 184 195 199 198 194 190 191 192 194 194 190 187 185 182 179 178 177 179 183 189 196 202 204
176 176 173 171 172 175 177 177 178 180 182 183 183 181 178 175 172 172 174 179 182 181 175 164 158 159 163 167 170 173 174 175 172 166 161 159 160 163 166 168 169 169 169 170 173 181 190 193 192 190 189 192 197 200 201 201 198 194 191 188 186 185 184 186 189 194 199 203 205
174 178 178 175 173 173 175 176 178 182 185 187 186 184 182 178 174 174 176 182 187 189 187 180 171 165 165 167 170 174 177 179 176 170 164 162 165 169 172 173 174 174 176 178 182 187 189 186 183 181 182 186 193 198 201 203 204 203 201 200 199 197 195 196 199 204 207 208 206
169 173 175 174 172 171 171 172 175 179 182 185 187 188 186 181 176 174 177 181 184 185 186 184 180 173 169 169 171 174 177 178 177 172 169 171 174 177 179 180 180 181 183 185 188 188 186 182 178 177 179 185 192 199 204 207 209 208 206 207 209 208 206 205 209 214 215 212 206
164 167 169 169 168 167 166 167 170 174 178 181 187 190 190 186 181 178 179 182 182 182 181 181 179 176 174 173 174 174 174 175 175 175 178 181 182 183 183 183 182 183 185 187 188 187 185 182 180 180 183 190 199 206 211 214 215 213 210 209 210 211 210 210 213 215 213 209 206
158 161 163 163 163 163 164 166 169 173 177 180 185 189 191 189 186 184 183 184 184 183 182 181 180 179 178 178 178 178 177 177 177 180 183 186 187 187 186 186 185 185 187 188 188 188 187 186 186 188 192 199 206 214 220 224 224 222 218 214 212 211 211 212 213 210 206 204 205
155 157 158 158 159 161 164 166 169 173 176 180 183 186 187 187 188 187 187 186 185 185 184 184 183 182 181 180 180 180 180 180 180 182 185 188 190 191 191 193 193 192 192 191 191 191 191 192 194 196 201 207 214 220 225 227 227 225 221 217 215 213 212 210 211 209 206 206 209
154 156 157 157 159 161 164 165 168 171 175 178 181 183 184 185 187 189 190 189 189 188 187 186 186 186 185 185 184 184 183 184 184 185 187 189 192 195 198 202 203 203 202 201 200 198 197 198 198 201 205 211 217 221 225 226 225 223 219 216 214 212 211 208 209 208 207 207 209
156 158 159 160 161 163 164 166 167 169 173 176 179 182 183 184 186 189 192 194 193 191 190 190 189 189 189 188 188 187 187 187 187 188 189 191 194 198 202 205 207 208 209 210 211 211 210 211 211 211 213 217 221 223 223 222 221 219 216 213 211 209 207 206 205 204 203 203 206
156 156 159 162 164 167 168 170 171 173 175 178 180 182 184 185 186 189 193 196 197 196 194 193 193 192 191 190 189 189 188 189 190 191 192 195 198 201 204 206 207 209 211 213 215 217 220 223 225 226 227 228 228 228 226 223 218 213 208 206 204 203 201 199 198 197 197 198 202
148 150 154 160 163 167 170 173 176 178 181 183 185 186 188 189 190 190 192 194 197 197 196 194 194 194 193 191 191 191 192 193 194 196 198 201 203 205 207 208 210 211 213 215 217 220 223 226 229 231 232 230 227 224 221 218 212 207 203 199 196 194 192 191 191 190 191 194 197
135 141 146 151 154 157 162 167 172 176 180 183 186 189 192 195 197 197 194 193 194 194 194 194 194 193 192 192 192 193 195 197 199 201 203 205 207 209 211 212 213 213 214 216 218 221 224 226 227 227 226 224 219 214 209 206 202 199 196 191 187 185 184 184 185 186 187 190 193
119 128 135 139 142 145 150 155 160 165 169 173 178 182 187 192 196 198 197 194 191 191 192 195 197 197 195 193 192 193 195 197 199 201 204 206 208 210 213 215 215 215 215 216 217 219 221 222 222 220 217 213 209 204 200 196 193 189 185 182 179 178 177 179 180 181 182 184 187
112 119 125 130 135 138 141 145 148 152 155 159 164 169 175 180 186 190 192 192 192 194 196 199 201 201 199 196 194 192 192 194 196 199 202 205 207 209 212 214 214 214 214 214 215 216 216 215 213 211 207 202 198 194 191 188 184 180 177 174 172 172 172 174 175 175 176 177 180
114 119 123 127 131 135 138 141 143 145 147 151 157 164 170 173 179 184 189 193 196 198 199 200 200 199 199 198 197 195 193 192 193 195 199 202 205 207 209 210 210 210 211 211 212 212 211 208 204 199 195 191 186 183 181 179 177 174 172 170 169 167 167 168 169 170 170 171 173
117 120 123 126 130 133 136 139 141 143 147 153 161 168 173 176 178 182 185 188 189 190 190 190 191 192 193 194 195 197 196 193 192 192 194 197 200 202 202 202 202 203 204 206 206 207 206 203 197 190 184 180 176 173 171 171 170 170 169 168 166 163 162 162 163 163 163 164 167
122 122 123 126 129 131 133 136 139 142 146 153 159 164 167 170 172 173 173 172 172 174 175 176 177 179 182 185 187 189 189 187 188 189 190 190 191 192 192 192 192 194 195 197 197 197 195 192 188 183 178 173 170 167 164 164 164 165 165 164 162 160 159 157 157 156 157 159 163
127 127 127 129 131 131 133 136 139 142 145 149 152 156 159 162 163 164 164 164 164 165 167 167 168 169 171 174 176 177 177 178 180 182 183 182 181 181 181 182 183 184 185 186 185 184 182 180 178 175 173 170 168 165 162 160 158 158 157 155 156 157 157 156 154 154 154 157 163
128 129 131 132 131 131 133 137 138 140 143 146 148 151 153 155 156 158 160 161 163 164 165 165 166 167 167 167 169 170 171 171 172 173 174 175 175 174 174 174 174 174 174 174 173 173 172 172 171 171 169 168 166 163 160 155 152 150 149 150 152 155 157 156 155 156 158 161 165
125 127 128 128 127 128 131 133 135 137 139 142 144 146 147 148 149 150 152 154 157 158 159 160 163 164 164 163 164 166 166 166 166 167 168 169 169 168 167 166 164 164 165 166 166 167 168 169 169 168 167 165 162 158 154 150 147 147 148 151 154 156 157 157 158 160 163 165 167
119 120 121 120 121 123 125 127 130 133 135 138 140 141 142 142 142 142 144 146 148 150 152 155 156 156 156 157 159 160 159 160 162 163 164 163 161 159 158 158 157 158 161 163 165 167 168 168 167 166 164 162 157 153 150 149 149 151 154 156 157 157 158 159 162 164 166 167 167
113 114 114 114 113 114 116 120 124 127 130 132 134 135 136 136 136 137 139 142 143 146 149 151 149 148 149 151 153 153 153 155 156 157 158 157 155 153 153 153 153 156 159 163 165 165 166 165 163 161 158 156 153 151 151 153 155 157 159 159 159 159 160 161 163 165 166 167 166
109 110 110 109 108 108 110 114 117 120 123 125 127 128 129 129 131 134 137 140 141 142 144 144 144 143 143 145 146 147 147 148 149 150 152 152 151 150 150 150 151 154 158 161 162 162 161 160 158 156 154 154 154 155 157 159 161 162 162 161 161 161 162 163 164 165 166 167 168
106 108 108 107 107 108 109 111 113 115 117 118 120 121 122 124 127 130 133 136 138 138 138 138 138 137 138 139 140 141 142 144 145 147 149 150 150 148 148 148 150 153 156 158 158 158 157 156 155 155 155 157 159 162 165 166 166 166 164 162 162 163 164 165 166 166 168 168 169
104 105 106 107 108 109 111 112 113 114 114 113 114 116 119 121 122 124 127 131 134 135 136 136 136 137 138 139 139 140 141 142 144 146 148 149 149 148 146 146 149 152 155 156 156 156 157 157 157 157 159 161 165 168 170 170 169 168 166 164 164 165 167 169 171 171 172 172 172
100 102 104 105 107 109 111 113 114 115 114 112 113 115 118 120 121 123 126 131 133 134 135 136 138 138 139 140 142 142 142 142 144 146 148 149 149 147 146 146 148 151 154 156 157 159 160 160 159 160 161 163 165 168 170 170 170 169 167 166 166 167 169 172 173 174 175 174 174
98 99 101 103 105 108 111 113 115 115 114 113 114 116 118 120 122 125 129 132 133 133 133 135 138 139 140 141 142 143 144 144 145 146 148 149 149 147 146 146 149 152 156 159 161 162 162 161 160 159 160 161 163 164 166 167 166 166 165 164 163 164 166 167 168 169 169 169 171
97 99 100 102 104 107 110 113 114 113 113 114 116 118 120 121 123 127 131 133 131 130 131 134 136 138 140 141 142 143 145 146 147 148 149 151 150 149 148 148 150 155 160 163 164 163 162 160 158 158 158 159 159 160 160 160 160 158 156 155 153 154 154 156 157 157 158 159 163
97 99 101 103 104 106 109 111 112 112 113 116 118 120 122 123 125 128 132 133 130 129 129 132 134 136 138 139 139 140 143 147 149 150 151 152 152 151 150 150 153 159 164 166 166 163 160 157 155 155 156 157 156 156 156 154 152 149 146 143 141 140 141 142 144 144 146 148 154
95 96 98 100 102 104 105 107 109 112 115 118 120 122 123 125 127 130 133 133 133 131 131 131 133 134 135 135 135 135 139 144 150 152 153 153 153 154 153 153 156 161 166 168 167 163 159 155 152 152 154 155 155 154 152 150 146 143 140 137 134 133 133 134 135 136 139 142 148
91 90 92 94 97 99 101 103 106 111 116 120 122 123 124 126 129 131 133 133 134 134 133 133 134 135 135 134 133 133 135 140 147 153 155 155 156 157 157 158 159 163 167 169 169 165 160 154 150 149 152 154 155 155 152 149 146 143 140 138 136 134 133 133 134 136 139 143 148
91 89 90 91 93 96 99 102 105 108 112 118 123 125 127 128 129 129 130 131 133 134 135 134 135 136 135 133 131 130 132 136 142 150 156 159 161 161 162 162 163 164 167 171 172 169 162 155 149 148 150 154 157 158 156 153 149 146 144 143 141 140 139 138 138 139 141 145 150
Height
705 706 708 710 712 713 714 715 716 717 719 722 724 726 728 730 733 735 737 739 740 741 742 744 745 747 749 751 753 755 756 757 758 759 760 762 764 765 767 769 771 773 775 776 778 779 780 781 783 784 785 786 787 788 789 790 792 793 795 796 797 798 799 800 800 801 802 803 804
704 706 708 710 711 713 714 715 715 717 718 720 722 725 727 729 731 733 735 736 738 739 741 743 745 746 748 750 752 753 754 755 756 757 759 761 762 764 766 767 770 772 774 775 777 778 779 780 782 783 784 785 786 787 788 790 791 792 793 795 795 796 798 799 800 800 801 803 804
703 705 707 709 711 712 713 714 715 716 717 719 721 723 725 727 729 731 733 735 736 738 740 742 744 746 748 750 751 752 753 754 755 756 758 760 761 763 765 766 769 771 773 775 776 777 779 780 781 782 783 785 785 786 787 789 790 791 792 793 794 795 796 798 798 800 801 803 804
703 704 706 708 709 710 711 713 714 715 717 719 720 722 724 726 728 730 732 734 736 738 740 742 744 745 747 749 750 751 752 753 754 755 757 759 760 761 763 765 768 770 772 774 775 777 778 780 781 782 783 784 785 785 786 788 789 790 791 792 793 794 795 796 797 799 800 802 804
702 703 705 706 708 709 710 712 714 715 717 718 720 722 724 726 728 730 732 734 736 738 740 742 744 745 747 748 750 751 752 753 754 755 756 757 759 760 763 765 767 770 772 773 775 776 777 779 780 781 782 783 784 785 786 787 788 789 790 791 792 792 793 795 796 798 800 802 803
701 703 705 706 707 709 710 712 714 715 717 718 720 722 724 726 729 730 732 734 735 738 740 742 744 745 746 748 750 751 752 753 755 755 756 756 758 760 762 765 767 769 771 773 774 775 777 778 780 780 781 782 783 784 785 786 787 789 790 790 790 791 792 793 795 797 799 801 803
701 703 705 705 707 709 711 713 714 715 716 718 720 722 724 726 729 730 732 734 736 738 740 742 744 745 746 748 750 752 754 755 755 755 755 755 757 760 763 765 767 769 770 772 774 775 776 778 779 780 781 782 782 783 784 785 786 788 789 789 789 790 790 791 793 796 798 800 802
701 703 704 705 707 709 710 712 714 715 716 718 720 722 724 726 729 730 732 734 736 738 740 741 743 745 747 748 750 752 754 756 756 755 754 755 757 760 762 765 767 768 770 771 773 774 775 777 779 780 781 781 782 783 784 785 786 787 788 788 788 788 788 790 792 795 797 800 801
701 703 704 705 707 709 710 712 713 715 717 719 720 722 725 726 728 730 732 734 736 738 740 741 743 745 747 748 750 752 754 756 756 755 754 755 757 759 762 764 766 768 770 771 772 774 775 777 779 780 781 781 782 783 784 785 786 786 787 787 787 787 787 789 791 794 796 799 801
701 703 704 706 708 710 711 712 714 716 719 720 722 724 725 727 729 730 733 735 737 739 740 741 743 745 746 748 749 751 753 755 755 754 754 755 757 759 761 763 765 767 769 770 772 774 775 778 779 780 781 781 782 784 785 786 786 786 786 786 786 786 787 788 790 793 795 798 800
700 702 704 706 708 710 712 713 715 718 720 722 724 725 727 728 729 731 734 737 739 740 741 741 742 744 745 747 748 750 752 754 754 754 754 755 757 759 761 764 765 767 768 770 771 774 776 778 779 780 780 781 783 784 785 785 785 785 785 785 785 786 787 788 790 792 795 797 799
701 703 705 707 709 710 712 714 715 718 720 723 725 726 728 729 730 731 734 738 740 741 742 742 742 742 744 746 748 750 751 753 753 753 753 755 757 760 762 764 766 767 769 770 772 774 775 776 777 778 779 780 782 784 784 784 784 784 783 784 785 785 787 788 790 791 794 796 799
701 703 705 707 709 710 712 713 715 718 720 723 725 726 727 729 730 731 734 737 740 741 742 742 742 742 743 745 747 748 750 751 752 752 753 755 758 760 762 764 766 768 770 771 773 774 775 775 775 776 778 780 781 783 783 783 782 782 782 782 783 785 786 787 789 790 793 796 798
701 703 705 707 709 710 712 713 715 718 720 722 725 726 727 729 730 732 734 737 739 740 741 741 741 742 742 744 745 746 748 749 750 752 754 756 758 760 762 764 766 768 770 772 773 773 773 774 774 775 776 778 780 781 782 781 781 780 780 781 782 783 784 785 787 789 792 795 798
701 703 705 707 709 710 712 714 716 718 720 722 725 726 728 729 730 732 735 737 738 739 739 740 740 741 742 743 744 745 747 748 750 752 755 757 759 760 762 764 766 769 770 772 773 773 772 773 773 774 775 777 778 779 780 780 779 779 779 780 780 781 782 784 785 788 790 794 797
701 704 705 707 708 710 712 714 716 718 720 722 724 726 727 729 731 733 735 736 737 738 738 739 739 740 741 742 744 745 746 748 750 752 754 756 758 760 762 764 767 769 770 771 772 772 772 772 773 773 775 776 777 778 778 778 778 777 778 778 779 780 781 782 784 786 788 791 795
701 704 705 707 708 710 712 714 716 718 720 722 724 725 727 729 730 732 734 735 736 736 737 738 739 740 741 743 744 745 747 749 750 752 754 756 758 760 761 764 766 768 769 770 771 771 772 772 772 773 774 775 776 776 777 777 777 776 776 777 778 779 780 781 783 785 787 789 792
702 704 705 707 709 710 712 714 716 718 719 721 723 725 726 728 730 731 733 734 734 735 736 737 739 740 741 743 745 746 748 749 751 752 754 755 757 759 761 763 765 766 767 769 770 770 771 771 771 772 773 773 774 775 776 776 776 776 776 776 777 778 780 781 783 784 786 788 790
702 704 705 707 709 710 712 714 715 717 719 720 722 724 725 727 729 730 731 733 734 734 735 736 738 740 741 743 745 746 748 750 751 752 754 755 757 759 760 762 763 764 765 766 767 768 769 770 770 770 771 772 773 773 774 775 776 776 776 776 776 778 779 781 782 784 786 787 789
702 704 706 707 709 710 711 713 715 717 718 720 722 723 725 726 728 729 731 732 733 734 735 736 738 740 741 743 744 746 748 749 751 752 754 755 756 757 759 760 761 762 763 764 765 766 767 768 768 769 770 770 771 771 772 774 775 776 776 775 776 777 778 780 781 783 785 786 787
703 705 707 708 709 710 711 713 714 716 718 719 721 723 724 726 728 729 730 731 733 734 735 736 737 739 740 742 743 745 747 748 750 751 752 754 755 756 757 758 760 760 761 763 764 765 765 766 766 767 768 768 769 769 770 772 773 774 775 775 775 776 778 779 780 782 783 784 786
705 707 708 709 710 710 711 712 714 715 717 718 720 721 723 725 728 729 730 731 732 734 735 736 737 738 739 740 742 744 745 747 749 750 751 752 753 755 755 757 758 759 760 761 762 763 764 765 765 766 766 767 767 767 768 769 771 773 774 775 775 776 777 779 780 781 782 784 786
708 709 710 710 711 712 712 713 714 715 716 717 719 721 723 725 727 729 730 731 732 734 735 736 738 739 739 740 741 742 744 745 747 749 750 751 752 753 755 755 756 758 759 760 761 762 763 764 764 765 765 765 766 766 766 767 768 770 773 774 775 776 777 779 780 781 782 784 786
710 711 712 712 713 714 714 715 715 716 717 718 719 720 722 724 726 728 730 731 732 734 735 737 738 739 739 740 741 742 743 744 745 747 748 750 751 752 753 755 755 756 757 758 760 760 761 762 763 764 764 765 765 765 766 766 767 769 771 773 774 775 777 779 780 781 782 784 785
712 713 714 714 715 715 715 716 716 717 718 719 720 721 723 724 726 728 729 731 733 734 735 737 738 738 739 740 741 742 743 743 744 745 747 749 750 751 752 754 755 755 756 757 759 760 761 762 762 763 763 764 765 765 766 766 766 768 769 771 772 774 776 778 780 781 782 783 785
714 715 715 716 716 717 717 717 718 719 719 720 721 722 723 725 726 728 730 731 732 734 735 736 737 738 739 740 740 741 742 742 743 744 746 747 749 750 752 753 754 755 755 756 758 759 760 762 762 762 763 763 764 765 766 767 767 767 769 770 771 773 776 778 779 780 781 782 784
716 716 717 717 718 718 719 719 719 720 720 721 722 723 724 725 726 728 730 731 732 734 735 736 737 738 738 739 740 741 741 742 743 744 745 747 749 750 751 752 753 754 755 756 758 759 761 762 762 763 763 764 765 765 766 767 767 768 768 770 771 774 776 777 778 779 780 782 784
717 718 718 719 719 720 720 720 721 721 722 722 723 724 724 725 727 728 730 731 732 734 735 736 737 737 738 739 740 740 741 742 743 745 746 747 749 750 751 752 753 755 756 757 759 760 761 762 763 764 764 764 765 765 766 766 767 768 769 770 772 774 776 777 778 779 780 782 784
718 719 720 720 720 721 721 722 722 723 723 724 724 725 725 726 727 729 730 731 732 733 735 735 737 738 739 740 740 741 742 743 744 745 746 748 749 750 751 753 754 755 757 758 760 761 762 763 764 765 765 765 765 766 766 766 767 768 770 771 773 775 775 776 778 779 780 782 783
719 720 720 721 721 722 723 723 724 724 724 725 725 725 726 727 728 729 730 731 732 733 734 735 736 738 739 740 741 742 743 744 745 745 747 748 749 750 752 753 755 756 758 759 760 762 763 764 765 765 765 765 765 766 766 767 768 769 770 772 773 774 775 776 777 779 780 781 783
720 721 721 722 722 723 724 724 725 725 725 725 726 726 727 727 728 729 730 731 733 734 735 736 737 738 739 740 741 743 744 745 745 746 747 748 749 751 752 754 755 757 759 760 761 762 764 764 765 765 765 765 766 766 767 768 769 770 771 772 773 774 775 776 777 779 780 781 782
721 722 722 723 723 724 725 725 725 726 726 726 727 727 728 728 729 730 731 732 733 734 735 737 737 739 740 741 742 743 744 745 746 747 748 749 750 751 753 755 756 758 759 760 762 763 764 764 765 765 765 766 766 767 768 769 770 770 771 772 773 774 775 776 777 778 779 780 781
723 723 723 724 725 725 726 726 727 727 727 728 728 729 729 730 730 731 732 733 734 735 736 737 738 739 740 742 743 744 745 746 747 748 749 750 751 752 754 756 757 759 760 761 762 763 764 764 765 765 766 766 767 768 769 769 770 771 772 772 773 774 775 776 777 778 779 780 781
725 725 725 725 726 727 727 728 728 729 729 730 730 730 731 731 732 733 734 735 735 737 738 739 740 740 741 742 744 745 745 747 748 749 750 751 752 753 755 757 758 760 761 761 762 763 764 764 765 765 766 767 768 768 769 770 770 771 772 773 773 774 775 776 777 778 779 780 780
726 726 727 727 728 728 729 729 730 730 731 731 732 733 733 734 734 735 735 736 737 738 739 740 741 742 743 744 745 745 746 748 749 750 751 752 753 755 756 758 759 760 761 762 762 763 764 764 765 766 766 767 768 768 769 770 770 771 772 773 774 774 775 776 777 778 779 780 780
728 728 729 729 730 730 730 731 731 732 732 733 734 735 735 736 736 737 738 738 739 740 740 741 743 743 744 745 746 747 748 749 750 751 752 753 754 756 757 759 760 761 761 762 762 763 764 765 765 766 766 767 767 768 769 770 770 771 772 773 773 774 775 776 777 778 778 779 780
730 730 730 731 731 732 732 733 733 734 734 735 735 736 737 737 738 739 740 740 741 741 742 743 744 745 746 746 747 748 749 750 751 752 753 754 755 756 757 759 760 761 761 762 763 763 764 764 765 765 766 766 767 768 768 769 770 770 771 772 773 774 775 776 776 777 778 779 780
732 732 732 733 733 734 734 735 735 735 736 737 737 738 738 739 740 741 742 742 742 743 744 745 746 746 747 748 749 750 751 752 752 753 754 755 756 757 758 759 760 761 761 762 763 763 764 764 765 765 765 766 766 767 768 769 770 770 771 772 773 774 775 775 776 777 778 779 780
735 735 735 735 735 736 736 736 737 737 738 739 739 740 740 741 742 742 743 743 744 745 745 746 747 748 749 749 750 750 752 753 754 755 755 756 757 757 758 759 760 761 762 762 763 763 764 764 765 765 765 766 766 767 768 768 769 770 771 772 773 774 775 775 776 777 778 779 780
737 737 737 737 737 737 738 738 739 740 740 740 741 741 742 743 743 744 744 745 745 746 746 747 748 749 750 750 750 751 752 754 755 756 756 757 757 758 758 759 760 761 762 762 763 763 764 764 765 765 765 766 766 767 768 768 769 770 770 771 772 773 774 775 776 777 778 779 780
738 738 738 739 739 739 739 740 740 741 742 742 743 743 744 744 745 745 745 746 746 747 747 748 749 750 750 750 751 751 753 754 755 756 757 757 758 758 759 760 760 761 762 762 763 763 764 764 765 765 765 766 767 767 768 768 769 770 770 771 772 773 774 775 776 778 779 780 780